Location: Blankensee
(53.5126°N, 14.3055°E)
Time: 18:22:36
(UTC+00:00)

Cosmos 2112 Rocket - Pass Details

Date: 08 August 2020
Orbit: 757 x 786 km, 74.0° (Epoch: 19 September)

Event Time Altitude Azimuth Distance (km) Brightness Sun altitude
Rises 01:15:47 0° 332° (NNW) 3,252 7.7 -15.3°
Reaches altitude 10° 01:18:11 10° 331° (NNW) 2,317 6.9 -15.1°
Maximum altitude 01:23:26 74° 248° (WSW) 796 3.9 -14.7°
Drops below altitude 10° 01:28:36 10° 163° (SSE) 2,286 6.1 -14.2°
Enters shadow 01:29:30 - 163° (SSE) 2,635 6.4 -14.1°
